Regional Weather Roundup
Issued by NWS

Home | Current Version | Previous Version | Text Only | Print | Product List | Glossary On
Versions: 1 2 3 4 5 6 7 8 9 10 11 12 13 14 15 16 17 18 19 20 21 22 23 24 25 26 27 28 29 30 31 32 33 34 35 36 37 38 39 40 41 42 43 44 45 46 47 48 49 50
000
ASUS44 KEWX 031103
RWRTX
SOUTH TEXAS REGIONAL WEATHER ROUNDUP
NATIONAL WEATHER SERVICE AUSTIN/SAN ANTONIO TX
600 AM CDT THU SEP 03 2015

NOTE: "FAIR" INDICATED FEW OR NO CLOUDS BELOW 12,000 FEET WITH NO
SIGNIFICANT WEATHER AND/OR OBSTRUCTIONS TO VISIBILITY.

* - THESE STATIONS ARE NOT NWS OR FAA STATIONS...AND ARE NOT SUBJECT
    TO NWS AND FAA QUALITY CONTROL.

TXZ171-172-183>190-031200-
TEXAS HILL COUNTRY AND EDWARDS PLATEAU

CITY           SKY/WX    TMP DP  RH WIND       PRES   REMARKS
JUNCTION       PTCLDY    71  66  84 CALM      29.98F
*LLANO         CLEAR     68  64  88 CALM      30.00S
BURNET         CLEAR     72  67  84 CALM      29.99S
*HORSESHOE BAY CLEAR     69  67  94 CALM      29.97S
*KERRVILLE     CLOUDY    72  69  91 SE3       29.98F
*FREDERICKSBRG MOCLDY    67  64  90 CALM      29.99S
*ROCKSPRINGS   CLEAR     70  68  94 SE6       30.02S
*BOERNE STAGE  CLOUDY    70  66  88 CALM      29.99S
*CASTROVILLE   MOCLDY    74  68  82 CALM      29.97R
HONDO          MOCLDY    73  69  87 CALM      29.97S
*UVALDE        MOCLDY    72  69  90 NE6       29.95F
DEL RIO        CLEAR     77  69  76 E9        29.91S
LAUGHLIN AFB   CLEAR     75  68  80 E9        29.92S
CARRIZO SPRGS  CLEAR     73  70  88 E3        29.91R
*EAGLE PASS    MOSUNNY   75  70  83 E6        29.92S
$$

TXZ173-191>194-202-209-217>225-228-031200-
CENTRAL AND SOUTH CENTRAL TEXAS

CITY           SKY/WX    TMP DP  RH WIND       PRES   REMARKS
GEORGETOWN     CLEAR     72  66  83 CALM      29.97S
AUSTIN/BERGSTM PTCLDY    69  68  96 CALM      29.95S
AUSTIN/MABRY   MOCLDY    74  69  85 CALM      29.96S
*AUSTIN/EXEC   CLOUDY    72  68  88 CALM      29.96S
*LAGO VISTA    PTCLDY    73  70  88 S5        29.98S
SAN MARCOS     PTCLDY    72  66  83 CALM      29.96S
NEW BRAUNFELS  CLEAR     71  68  90 CALM      29.94R
RANDOLPH AFB   PTCLDY    73  71  95 CALM      29.95S
PT SAN ANTONIO MOCLDY    76  73  90 CALM      29.94S
SAN ANTONIO    MOCLDY    76  72  87 CALM      29.95S
STINSON FIELD  MOCLDY    76  72  87 N3        29.93R
*PLEASANTON    PTCLDY    72  70  93 CALM      29.93S
*LA GRANGE     CLEAR     74  72  96 CALM      29.93S
*GIDDINGS      PTCLDY    72  70  95 CALM      29.99S
*GONZALES      CLOUDY    74  73  97 CALM      29.93S
$$

TXZ163>164-176>182-195>201-210>213-226-227-235-031200-
SOUTHEAST TEXAS

CITY           SKY/WX    TMP DP  RH WIND       PRES   REMARKS
COLLEGE STN    MOCLDY    73  71  93 CALM      29.96R
*BRYAN         PTCLDY    69  69  99 CALM      29.97S
*CALDWELL      CLEAR     72  72 100 CALM      29.99R
*CROCKETT      CLOUDY    72  70  94 NE3       30.00R
*BRENHAM         N/A     72  72  99 CALM      29.96R FOG
HUNTSVILLE     CLOUDY    74  72  93 CALM      29.96S
CONROE         FOG       72  71  97 CALM      29.96R VSB 1/4
HOUSTON BUSH   PTCLDY    73  72  96 N5        29.94S
HOUSTON HOBBY  PTCLDY    76  74  93 CALM      29.93S
*HOUSTON SW AP PTCLDY    74  73  97 CALM      29.94R
PEARLAND       CLEAR     77  74  90 CALM      29.94S
HOUSTON HOOKS  CLOUDY    74  73  97 VRB3      29.95S FOG
ELLINGTON FLD  PTCLDY    77  73  88 S3        29.95S
SUGAR LAND     CLEAR     75  73  93 NE3       29.93S
*HOUSTON EXEC  PTCLDY    72  72 100 NE5       29.95S FOG
*CLEVELAND MUN FOG       73  73 100 CALM      29.96S VSB 1/4
*WHARTON       PTCLDY    72  71  98 CALM      29.93S FOG
*COLUMBUS      MOCLDY    72  72  99 CALM      29.94S FOG
*EAGLE LAKE    CLOUDY    73  72  99 CALM      29.94R FOG
$$

TXZ214>216-236>238-031200-
THE UPPER TEXAS COAST

CITY           SKY/WX    TMP DP  RH WIND       PRES   REMARKS
*ORANGE        CLOUDY   N/A N/A N/A CALM      29.95F FOG
PORT ARTHUR    PTCLDY    77  75  93 NE3       29.93S
GALVESTON      MOCLDY    79  76  90 CALM      29.93S
ANGLETON       PTCLDY    75  74  96 CALM      29.92S
*BAY CITY      CLOUDY    77  76  97 CALM      29.92S
PALACIOS       LGT RAIN  77  76  96 E8        29.91S
$$

TXZ229>234-239>247-031200-
TEXAS COASTAL BEND AND RIO GRANDE PLAINS

CITY           SKY/WX    TMP DP  RH WIND       PRES   REMARKS
VICTORIA       CLEAR     73  73 100 N6        29.92S
*BEEVILLE      PTCLDY    72  72 100 CALM      29.91F
ROCKPORT       PTCLDY    78  74  87 CALM      29.89S
*PORT ARANSAS  MOCLDY    82  76  84 S8        29.88S
*PORT LAVACA   NOT AVBL
*INGLESIDE     MOCLDY    80  75  85 CALM      29.88F
CORPUS CHRISTI MOCLDY    76  73  91 W5        29.89S
CORPUS NAS     PTCLDY    76  73  91 SW5       29.88F
*ROBSTOWN      PTCLDY    76  74  96 CALM      29.90S
ALICE          PTCLDY    72  72 100 CALM      29.90S
KINGSVILLE NAS CLEAR     73  73 100 NW5       29.89F
COTULLA        MOCLDY    76  72  87 E7        29.92R
*FAITH RANCH     N/A     77  72  83 E5        29.91S
LAREDO         PTCLDY    77  74  90 E6        29.91S
$$

TXZ248>255-031200-
DEEP SOUTH TEXAS

CITY           SKY/WX    TMP DP  RH WIND       PRES   REMARKS
BROWNSVILLE    CLEAR     75  73  93 CALM      29.88S
PORT ISABEL    CLEAR     78  75  90 S3        29.88S
*SOUTH PADRE   PTCLDY    81  75  83 S5        29.88S
HARLINGEN      CLEAR     77  76  96 E3        29.87
*HEBBRONVILLE  NOT AVBL
MCALLEN        CLEAR     79  75  87 CALM      29.88F
*WESLACO       CLEAR     77  74  90 SE3       29.87F
FALFURRIAS     PTCLDY    74  72  94 CALM      29.89S
EDINBURG       FOG       77  74  91 CALM      29.88F VSB 1/2
*ZAPATA        CLEAR     76  74  96 CALM      29.88F
$$

TXZ213>215-236>238-242>244-246-247-251-254-255-031200-
CMAN STATIONS

STATION/POSITION TIME  TEMP    WIND        PRES    WAVE
                       AIR SEA DIR/SP/G            HT/PER
                 (UTC) (F)     (DEG/KT/KT) (MB)    (FT/S)
$$

GMZ080-GMZ150>470-031200-
OFFSHORE BUOY REPORTS

STATION/POSITION TIME  TEMP    WIND        PRES    WAVE
                       AIR SEA DIR/SP/G            HT/PER
                 (UTC) (F)     (DEG/KT/KT) (MB)    (FT/S)
$$


USA.gov is the U.S. government's official web portal to all federal, state and local government web resources and services.